Location: Lafig�re
(44.4503°N, 4.0357°E)
Time: 14:44:49
(UTC+00:00)

S-56A Canister/Altair - Pass Details

Date: 25 January 2021
Orbit: 631 x 2501 km, 38.9° (Epoch: 01 March)

Event Time Altitude Azimuth Distance (km) Brightness Sun altitude
Rises 00:27:20 0° 206° (SSW) 3,347 - -63.7°
Reaches altitude 10° 00:31:18 10° 180° (S) 2,180 - -63.5°
Maximum altitude 00:33:32 13° 152° (SSE) 1,888 - -63.3°
Drops below altitude 10° 00:35:38 10° 124° (ESE) 2,030 - -63.2°
Sets 00:39:02 0° 95° (E) 2,916 - -63.0°
